Weather Service Report


459 
ASUS43 KLMK 102302
RWRKY 
KENTUCKY REGIONAL WEATHER ROUNDUP
NATIONAL WEATHER SERVICE LOUISVILLE KY
600 PM EST SAT DEC 10 2016

NOTE "FAIR" INDICATES FEW OR NO CLOUDS BELOW 12,000 FEET
WITH NO SIGNIFICANT WEATHER AND/OR OBSTRUCTIONS TO VISIBILITY.

KYZ001>023-026-027-061>063-070>075-110000-
WESTERN AND SOUTH CENTRAL KENTUCKY
  
CITY           SKY/WX    TMP DP  RH WIND       PRES   REMARKS
PADUCAH        PTCLDY    35  12  38 SE5       30.43S WCI  31          
HENDERSON      CLOUDY    32  16  51 SE6       30.46F WCI  26          
OWENSBORO      CLEAR     31  22  69 S3        30.47F                  
HOPKINSVILLE   CLEAR     34  15  46 E3        30.44F                  
BOWLING GREEN  CLOUDY    30  17  58 E5        30.47F WCI  25          
GLASGOW        NOT AVBL                                               
$$

KYZ024-025-028>034-038-045-046-053-110000-
NORTH CENTRAL KENTUCKY
  
CITY           SKY/WX    TMP DP  RH WIND       PRES   REMARKS
LOUISVILLE/SDF CLOUDY    33  13  43 SE6       30.47F WCI  28          
LOUISVILLE/LOU PTCLDY    33  14  45 SE3       30.48F                  
FORT KNOX      CLOUDY    30  16  56 SE7       30.44F WCI  23          
$$

KYZ035>037-039>044-047>052-055>060-089>105-110000-
NORTHEAST KENTUCKY
  
CITY           SKY/WX    TMP DP  RH WIND       PRES   REMARKS
LEXINGTON      CLOUDY    30  14  51 S3        30.47S                  
COVINGTON      CLOUDY    28  18  66 CALM      30.46S                  
FRANKFORT      PTCLDY    31  14  49 S3        30.46F                  
$$

KYZ054-064>069-076>088-106>120-110000-
SOUTHEAST KENTUCKY
  
CITY           SKY/WX    TMP DP  RH WIND       PRES   REMARKS
JACKSON        PTCLDY    28  13  53 CALM      30.44F                  
LONDON         CLOUDY    30  13  49 CALM      30.46R                  
SOMERSET       CLOUDY    30  14  51 CALM      30.49S                  
MIDDLESBORO    CLEAR     32  19  60 CALM      30.45F                  
MONTICELLO     CLEAR     27  19  72 VRB7      30.48S WCI  19          
$$

  

Return to Home page


Western Regional Climate Center, wrcc@dri.edu